Location: Newark
(65.1833°N, 14.6000°W)
Time: 13:06:34
(UTC+00:00)

N. Korean satellite - Visible Passes

Search period start: 24 September 2020 00:00
Search period end: 04 October 2020 00:00
Orbit: 455 x 503 km, 97.2° (Epoch: 23 September)

Date Brightness Start Highest point End Pass type
(mag) Time Alt. Az. Time Alt. Az. Time Alt. Az.
24 Sep 9.7 05:42:37 10° NE 05:45:26 20° E 05:48:14 10° SE visible
25 Sep 10.0 05:17:10 10° NE 05:19:06 14° E 05:21:02 10° ESE visible
27 Sep 9.3 05:57:45 10° NE 06:00:53 25° E 06:03:58 10° SSE visible
28 Sep 9.8 05:32:05 10° NE 05:34:35 17° E 05:37:03 10° SE visible
29 Sep 10.3 05:06:56 10° ENE 05:08:12 11° E 05:09:28 10° E visible
30 Sep 8.8 06:12:55 10° NNE 06:16:17 32° E 06:19:34 10° SSE visible
01 Oct 9.6 05:47:08 10° NE 05:50:01 21° E 05:52:51 10° SE visible
02 Oct 10.0 05:21:36 10° NE 05:23:40 14° E 05:25:43 10° ESE visible
02 Oct 10.6 19:17:31 10° W 19:18:46 11° W 19:20:02 10° WNW visible
